Wind_Speed
23 23 25 24 24 25 25 26 27 27 25 25 25 25 23 21 20 24 21 21 19 22 23 23 22 20 23 23 23 21 29 37 35 33 34 23 24 16 27 25 21 18 24 24 27
24 26 26 26 25 25 27 27 27 27 26 25 25 26 25 22 22 24 24 22 23 23 24 25 23 23 25 23 26 28 37 41 34 31 30 24 27 30 19 22 25 22 18 24 27
28 29 28 29 26 25 27 28 27 26 26 27 25 25 25 21 20 23 19 16 16 16 17 20 21 22 26 24 25 30 44 37 37 35 27 30 36 32 26 18 18 21 20 29 32
33 30 28 27 28 28 27 28 29 29 27 26 24 23 23 21 14 18 18 20 19 20 18 18 17 17 20 26 25 31 32 31 31 27 28 36 38 41 32 24 18 16 24 24 25
34 33 29 30 28 29 29 29 28 28 27 26 25 23 21 18 16 24 26 23 22 23 22 22 24 22 21 19 17 30 31 32 34 36 39 35 42 43 45 33 26 27 27 27 25
37 34 32 31 30 29 28 26 26 26 25 24 22 21 20 14 19 22 22 20 18 21 20 20 17 17 23 21 24 25 28 32 33 33 33 36 41 42 47 42 37 37 36 34 36
36 36 35 30 30 28 26 25 23 23 22 20 18 15 15 12 16 14 17 19 20 19 18 20 22 21 23 27 29 28 31 34 38 36 37 32 38 41 42 41 50 47 45 43 41
34 39 31 28 27 26 24 22 18 16 14 13 11 11 12 10 10 10 11 13 14 14 14 10 16 24 28 29 30 25 29 32 31 25 32 32 48 38 36 37 36 35 35 35 44
34 32 29 27 24 23 22 17 16 11 11 9 10 8 11 7 10 14 14 12 11 12 14 10 11 15 18 28 31 20 31 34 43 33 28 27 39 36 33 37 35 33 33 35 37
34 30 27 26 21 18 16 13 13 10 10 10 11 7 7 8 9 7 8 11 14 14 9 8 9 14 13 14 24 15 18 26 36 28 26 28 35 42 31 23 25 25 37 32 35
32 27 24 20 17 14 13 11 12 11 11 10 11 12 13 10 5 8 7 5 3 8 15 14 10 21 21 18 24 25 27 33 32 33 33 35 34 35 33 39 37 26 18 19 22
27 24 20 17 13 12 11 10 11 11 12 10 12 13 11 6 5 5 9 11 6 8 5 10 19 18 20 23 26 27 31 34 37 33 28 30 34 45 47 39 44 36 31 19 24
23 20 15 15 12 12 12 10 9 9 12 13 9 9 5 3 2 6 15 12 12 14 12 17 16 17 22 23 23 29 32 29 32 32 31 34 39 39 40 39 44 45 39 33 18
21 17 16 14 13 13 10 8 7 7 8 5 7 4 3 2 5 3 11 15 18 18 17 14 13 17 23 25 20 29 26 27 28 29 28 22 20 40 37 36 34 47 46 38 29
18 17 16 15 15 12 8 8 7 4 2 6 7 6 5 2 8 7 15 21 18 17 12 24 23 20 25 28 26 35 36 33 31 30 28 33 20 54 29 33 32 32 34 36 36
18 18 18 16 14 11 10 8 5 4 4 10 8 8 6 10 4 14 11 14 12 15 18 24 19 24 24 25 30 32 37 34 32 32 17 35 17 41 37 37 37 33 28 33 39
21 20 19 17 12 11 10 8 5 4 6 4 6 9 14 8 7 9 12 14 15 19 21 22 18 14 12 18 20 17 21 10 13 11 13 29 21 38 12 13 23 28 27 22 40
22 20 17 14 13 11 10 9 4 5 5 8 9 14 8 4 9 7 12 14 10 14 20 12 15 11 18 20 20 24 19 9 6 6 12 25 17 40 39 41 36 24 23 23 35
23 20 17 15 12 12 12 9 3 3 9 10 10 5 2 6 9 12 10 10 10 13 17 19 19 28 25 25 21 26 26 20 14 24 11 15 22 31 31 31 21 24 29 34 34
22 20 18 14 13 13 14 8 7 11 11 9 1 2 5 11 11 11 10 9 17 17 16 16 23 20 24 25 27 20 24 17 12 4 5 7 20 18 25 16 17 26 35 29 29
22 20 17 16 15 15 11 8 11 13 8 4 7 6 4 7 8 11 7 17 12 17 18 17 18 25 22 27 26 28 20 13 13 12 3 4 2 14 10 14 14 20 23 33 23
24 21 19 17 17 13 11 13 8 9 5 2 2 0 5 8 8 10 11 11 18 19 18 15 17 23 24 25 23 20 11 10 8 6 5 4 3 23 15 6 15 5 10 27 11
25 20 20 19 14 15 12 11 10 5 6 6 5 4 4 8 9 9 12 14 17 19 15 21 12 18 16 10 15 20 13 11 16 8 6 5 7 29 33 9 17 30 20 7 5
25 19 20 19 15 12 10 7 4 2 4 1 3 3 4 8 2 8 13 11 14 14 16 18 19 20 17 21 25 18 22 21 16 9 12 14 22 25 29 20 14 7 7 5 10
24 19 18 18 14 11 8 5 5 2 1 6 6 2 6 7 12 6 13 18 17 8 14 14 19 17 15 19 21 20 24 19 17 19 15 21 15 17 25 22 11 6 3 7 3
22 21 19 15 12 8 6 6 7 5 2 6 5 1 7 10 11 22 22 18 22 15 12 15 14 20 24 14 16 17 16 17 13 17 20 19 14 13 16 9 10 11 7 3 4
19 18 17 14 10 7 4 7 11 5 4 4 4 7 8 13 15 17 12 17 21 23 27 11 10 16 11 14 20 8 7 11 16 10 10 9 6 6 7 8 4 9 10 11 13
Wind_Direction
295 298 297 295 294 296 299 301 302 301 301 300 296 293 291 290 287 284 282 283 279 274 270 266 263 256 253 246 242 230 238 249 247 241 249 251 259 262 287 251 232 229 250 236 237
294 298 298 296 296 299 301 301 303 305 306 305 301 299 298 297 293 284 283 284 279 270 267 265 263 256 248 247 242 222 231 241 250 255 259 257 262 276 290 262 226 228 231 222 222
293 296 293 293 295 295 299 303 305 306 306 303 301 300 300 304 300 290 286 290 279 275 272 270 264 257 251 245 238 238 242 249 251 253 249 258 265 270 264 261 254 242 233 230 236
299 295 296 295 297 300 303 305 309 310 309 305 303 302 302 306 294 278 278 283 283 279 269 263 262 256 259 249 243 253 253 257 265 269 262 260 268 265 260 258 239 227 236 253 249
295 294 300 298 296 298 301 306 309 308 306 304 305 303 300 300 281 273 277 278 274 270 267 261 259 255 255 271 263 242 252 258 259 256 258 268 267 269 259 262 241 225 221 223 232
289 292 298 296 295 295 299 302 304 302 300 300 301 300 298 298 274 277 293 295 279 276 273 265 253 249 245 233 242 251 256 259 258 257 260 265 263 264 259 263 258 233 231 234 234
287 290 295 291 291 294 299 304 305 303 301 301 297 299 293 290 284 278 277 283 286 276 266 256 253 239 242 247 242 248 258 253 244 249 255 258 259 254 265 265 256 256 249 246 239
282 291 288 286 288 292 296 297 293 289 291 288 291 295 292 292 282 291 302 296 289 290 294 294 259 251 249 255 253 251 245 264 252 249 256 254 263 259 264 265 265 264 263 265 253
280 284 283 282 282 288 291 294 288 283 278 284 292 292 289 287 310 308 309 309 302 280 270 278 271 283 266 254 263 265 263 262 268 262 257 253 270 273 272 269 270 261 270 273 268
277 274 277 279 280 282 282 280 274 269 268 283 287 277 274 301 314 341 344 14 357 3 346 314 273 284 304 253 255 263 261 271 273 286 281 269 268 270 261 248 257 271 259 269 268
267 268 271 272 272 271 270 266 265 265 258 269 274 281 281 293 259 37 312 66 283 334 326 332 267 263 281 284 287 287 274 274 281 279 288 281 288 277 271 257 258 273 263 247 248
259 259 259 259 254 251 250 254 263 260 274 273 275 266 273 254 224 220 300 325 327 311 308 296 277 298 293 281 274 276 271 272 282 281 286 283 280 274 270 264 253 254 264 259 235
251 249 242 241 232 232 238 248 256 266 278 276 273 247 262 225 335 314 303 303 317 311 296 291 271 289 283 283 289 277 281 276 281 287 283 281 281 272 268 272 251 247 256 267 237
237 236 233 225 219 228 234 240 245 269 279 277 272 180 205 29 310 244 263 288 304 308 308 294 281 274 278 288 293 291 287 291 289 293 280 286 283 270 271 273 271 250 252 255 236
218 221 215 208 220 224 216 220 233 235 265 165 185 256 257 350 298 234 254 289 304 312 294 285 311 297 282 285 290 284 284 290 288 285 294 272 277 274 279 269 267 263 259 247 228
209 209 206 208 214 203 201 210 227 204 229 176 216 235 284 307 300 277 293 295 323 309 292 290 295 286 288 290 286 288 285 283 281 273 272 265 266 274 273 268 267 261 268 234 223
200 202 202 206 199 195 201 206 184 212 153 170 192 246 297 326 259 296 306 341 328 322 318 309 289 295 300 324 303 288 328 301 271 243 251 256 253 252 225 270 269 268 276 234 229
196 197 201 198 190 194 199 194 192 163 157 210 255 292 309 292 301 286 322 318 317 327 322 330 324 306 292 325 328 317 318 272 261 249 254 257 245 262 265 268 277 253 239 208 194
189 193 193 188 191 197 189 190 195 183 224 270 293 335 293 170 317 315 305 305 329 337 314 309 287 293 289 298 311 309 300 301 304 280 261 249 261 279 285 273 262 240 209 204 202
187 185 183 185 191 188 176 165 226 230 260 274 103 284 280 297 317 322 317 293 322 315 316 305 311 299 301 293 281 297 292 297 282 276 232 240 244 261 285 281 191 184 190 198 204
180 183 180 178 178 173 172 185 228 256 261 219 209 240 279 309 294 318 293 316 311 315 314 324 300 298 295 299 302 314 291 283 291 260 283 326 283 333 337 317 213 178 171 186 196
179 181 176 174 162 167 191 206 229 242 310 21 51 325 283 305 315 309 318 314 318 317 319 311 315 300 299 306 296 290 299 321 252 330 329 245 261 353 322 4 264 165 162 175 141
179 179 173 173 176 187 203 227 223 178 197 195 201 274 335 326 326 317 322 318 332 336 321 314 296 315 316 330 335 347 344 323 330 328 299 334 307 341 333 325 147 156 93 105 122
177 165 173 183 190 189 207 197 227 236 222 196 89 9 283 309 309 308 307 299 305 309 313 306 294 288 280 285 297 306 317 311 284 283 297 309 319 336 321 353 155 161 151 152 298
178 169 175 186 186 195 203 200 175 185 118 92 134 251 310 330 332 304 307 322 327 325 313 321 320 308 304 285 286 303 313 312 293 298 258 301 312 322 323 10 106 86 183 14 99
181 173 176 172 182 188 184 167 155 180 195 180 199 311 24 346 301 309 320 335 327 343 319 316 305 321 316 324 318 311 309 325 317 316 300 285 287 319 322 343 332 352 0 232 171
184 180 175 172 178 161 164 188 206 225 150 180 41 8 341 291 309 313 327 338 317 308 311 299 292 300 285 312 321 335 0 318 342 18 353 351 358 314 300 353 338 286 278 279 290
Height
3122 3121 3120 3119 3119 3119 3118 3117 3116 3114 3113 3112 3111 3109 3109 3109 3108 3105 3107 3108 3110 3109 3109 3109 3111 3113 3112 3114 3116 3117 3114 3109 3112 3115 3114 3119 3119 3122 3123 3121 3121 3122 3122 3123 3124
3117 3116 3116 3114 3114 3114 3113 3112 3110 3109 3107 3105 3105 3103 3103 3104 3103 3099 3100 3101 3101 3102 3103 3103 3105 3106 3106 3109 3110 3110 3103 3102 3109 3112 3113 3115 3116 3117 3120 3118 3117 3118 3119 3118 3119
3113 3111 3111 3111 3109 3108 3108 3107 3106 3104 3102 3100 3099 3098 3097 3098 3097 3091 3093 3095 3095 3095 3097 3097 3099 3100 3098 3102 3104 3103 3095 3102 3104 3107 3109 3109 3108 3111 3112 3114 3115 3116 3116 3116 3114
3108 3106 3106 3105 3105 3102 3101 3100 3099 3099 3096 3095 3094 3093 3091 3092 3095 3088 3089 3090 3091 3091 3093 3093 3094 3095 3094 3094 3097 3095 3095 3098 3099 3102 3104 3102 3104 3099 3103 3107 3110 3111 3113 3112 3113
3102 3101 3100 3100 3098 3097 3096 3094 3094 3093 3092 3090 3088 3087 3086 3088 3089 3083 3084 3085 3085 3086 3087 3088 3089 3090 3088 3090 3092 3090 3091 3092 3094 3095 3097 3100 3095 3094 3089 3098 3101 3101 3102 3103 3107
3096 3096 3095 3095 3093 3092 3091 3090 3089 3089 3087 3085 3084 3082 3082 3084 3080 3079 3078 3079 3080 3079 3081 3082 3083 3085 3082 3083 3084 3085 3085 3085 3085 3088 3090 3091 3088 3090 3086 3091 3092 3093 3092 3094 3096
3089 3090 3090 3089 3088 3087 3086 3085 3083 3083 3082 3080 3079 3078 3077 3080 3077 3076 3074 3075 3074 3073 3074 3076 3077 3077 3078 3076 3078 3078 3075 3073 3074 3079 3080 3084 3076 3076 3083 3086 3083 3086 3086 3087 3087
3082 3084 3083 3083 3083 3082 3081 3082 3080 3079 3078 3076 3075 3074 3074 3075 3074 3073 3073 3072 3071 3070 3069 3071 3072 3073 3073 3073 3071 3073 3072 3067 3068 3072 3074 3081 3063 3073 3078 3080 3079 3077 3077 3078 3080
3076 3077 3078 3078 3077 3077 3077 3076 3077 3074 3075 3073 3072 3070 3070 3071 3071 3069 3068 3068 3067 3066 3065 3066 3067 3069 3070 3069 3066 3069 3065 3065 3060 3069 3069 3071 3065 3068 3071 3072 3071 3073 3071 3070 3071
3070 3071 3071 3073 3072 3072 3071 3071 3071 3071 3070 3070 3069 3070 3069 3069 3068 3067 3066 3064 3064 3063 3063 3063 3064 3066 3066 3066 3060 3063 3063 3061 3055 3064 3064 3062 3061 3056 3061 3063 3062 3062 3065 3064 3061
3065 3065 3066 3068 3067 3067 3068 3068 3070 3069 3067 3067 3067 3065 3064 3065 3066 3065 3064 3063 3062 3063 3062 3062 3062 3062 3063 3062 3060 3060 3060 3055 3054 3056 3056 3054 3052 3051 3052 3055 3055 3055 3054 3055 3057
3058 3059 3062 3063 3062 3063 3065 3065 3066 3066 3064 3064 3063 3062 3061 3062 3063 3064 3063 3062 3060 3059 3060 3061 3058 3058 3058 3059 3058 3056 3053 3052 3048 3050 3051 3048 3045 3043 3043 3045 3046 3047 3047 3048 3049
3052 3055 3056 3057 3059 3059 3061 3062 3064 3062 3061 3060 3059 3059 3060 3061 3061 3061 3062 3059 3058 3056 3056 3056 3054 3053 3053 3054 3052 3048 3047 3047 3046 3043 3042 3041 3037 3035 3033 3036 3037 3038 3040 3041 3042
3047 3050 3052 3054 3057 3055 3057 3060 3061 3060 3059 3058 3057 3057 3059 3059 3059 3061 3058 3059 3056 3052 3050 3049 3049 3048 3048 3045 3047 3041 3043 3042 3038 3037 3033 3038 3030 3025 3027 3026 3027 3028 3033 3035 3040
3042 3046 3047 3049 3051 3053 3056 3057 3059 3060 3060 3059 3057 3057 3057 3059 3058 3059 3057 3055 3052 3049 3051 3047 3044 3044 3043 3041 3042 3037 3035 3036 3033 3030 3030 3027 3029 3003 3021 3019 3022 3021 3023 3028 3035
3037 3041 3043 3045 3047 3050 3051 3054 3057 3060 3055 3056 3055 3055 3055 3054 3054 3054 3054 3053 3050 3047 3045 3042 3043 3041 3040 3038 3037 3034 3029 3026 3026 3025 3023 3019 3024 3010 3016 3016 3015 3014 3016 3018 3022
3030 3036 3039 3041 3045 3046 3048 3051 3056 3056 3054 3054 3053 3052 3051 3050 3051 3051 3051 3051 3050 3044 3041 3038 3036 3036 3036 3032 3029 3027 3024 3020 3021 3018 3014 3014 3015 3010 3007 3009 3008 3010 3011 3009 3012
3027 3032 3035 3040 3042 3043 3045 3050 3053 3052 3050 3050 3049 3049 3049 3049 3049 3050 3050 3049 3047 3044 3038 3036 3030 3031 3029 3032 3031 3026 3028 3027 3014 3012 3009 3011 3004 2997 3003 3001 3001 3005 3008 3004 3008
3024 3028 3033 3036 3038 3041 3043 3046 3049 3050 3047 3046 3046 3046 3049 3048 3047 3047 3046 3045 3044 3043 3040 3035 3031 3028 3028 3026 3028 3024 3022 3022 3018 3012 3011 3004 2997 2998 2997 2991 2992 2997 3001 2999 3002
3020 3026 3031 3033 3037 3039 3041 3043 3045 3045 3044 3044 3044 3046 3046 3046 3046 3046 3044 3043 3040 3039 3035 3033 3027 3027 3024 3023 3021 3023 3020 3017 3017 3005 3001 2995 2994 2994 2995 2991 2986 2991 2994 2998 3000
3018 3024 3028 3031 3034 3036 3039 3043 3042 3040 3043 3042 3042 3042 3044 3046 3044 3044 3043 3041 3035 3032 3032 3030 3027 3022 3022 3020 3019 3018 3017 3015 3014 3009 3002 3002 2995 2995 2991 2987 2985 2986 2990 2991 2999
3016 3022 3026 3029 3033 3036 3037 3038 3038 3038 3039 3038 3039 3042 3043 3042 3041 3041 3039 3036 3034 3031 3029 3029 3024 3018 3017 3015 3014 3014 3014 3012 3007 3006 3003 3002 2998 2996 2991 2986 2985 2981 2987 2985 2994
3014 3020 3024 3028 3032 3033 3034 3034 3036 3037 3037 3036 3037 3039 3040 3041 3040 3037 3036 3034 3031 3029 3027 3025 3023 3018 3012 3015 3011 3011 3012 3012 3008 3006 3004 3003 2997 2994 2989 2985 2985 2986 2991 3001 2998
3012 3017 3022 3026 3028 3030 3031 3032 3034 3034 3033 3034 3036 3037 3037 3037 3037 3035 3032 3030 3028 3027 3025 3024 3021 3022 3020 3019 3016 3012 3009 3007 3006 3004 3002 3002 2998 2996 2993 2985 2983 2986 2990 2995 3001
3009 3012 3018 3022 3026 3027 3029 3030 3031 3031 3032 3033 3035 3034 3035 3035 3033 3031 3029 3027 3025 3024 3023 3022 3019 3017 3015 3013 3011 3010 3007 3005 3003 3001 3001 2999 2998 2997 2993 2990 2982 2984 2989 2991 2993
3007 3011 3015 3019 3023 3025 3026 3028 3030 3030 3031 3031 3032 3033 3033 3033 3032 3028 3027 3026 3023 3022 3022 3020 3016 3012 3006 3007 3008 3006 3004 3002 3000 2997 2996 2996 2998 2996 2994 2992 2990 2991 2993 2991 2987
3007 3010 3014 3017 3020 3023 3025 3026 3027 3028 3029 3030 3031 3031 3031 3030 3029 3027 3025 3023 3022 3020 3017 3014 3015 3012 3007 3006 3003 3001 3001 3001 2999 2996 2995 2996 2998 2996 2996 2994 2992 2992 2991 2989 2988